Location: Edinburgh
(55.9500°N, 3.1600°W)
Time: 18:05:40
(UTC+01:00)

Envisat - Pass Details

Date: 07 October 2017
Orbit: 764 x 766 km, 98.2° (Epoch: 17 October)

Event Time Altitude Azimuth Distance (km) Brightness Sun altitude
Exits shadow 19:37:32 - 128° (SE) 2,520 5.2 -10.0°
Reaches altitude 10° 19:38:07 10° 126° (SE) 2,304 5.0 -10.1°
Maximum altitude 19:42:43 36° 61° (ENE) 1,201 3.6 -10.7°
Drops below altitude 10° 19:47:21 10° 356° (N) 2,317 5.6 -11.4°
Sets 19:49:48 0° 348° (NNW) 3,247 6.5 -11.7°
